STARLINK-11095, 59720

Orbit data source: Space-Track

STARLINK-11095, 59720 is a payload satellite owned by SpaceX/Seattle (US) in LEO that was launched on Fri, 10 May 2024 UTC via an FALCON 9 launch vehicle from the Air Force Western Test Range (AFWTR). Payload-class satellites include a variety of spacecraft equipped with specific instruments for various scientific and technological missions. These include communications satellites like Starlink; space stations such as the ISS; scientific satellites like the Hubble; Earth observation satellites from companies like Planet Labs, Umbra, and HawkEye 360; GPS; miniature CubeSats for education and research; and military/defense satellites.

Loading next visibility...
Identifier
59720, 2024-088N
Orbit
LEO
Country
Flag of USUS
Related business
Manufacturer
SpaceX/Seattle
Mission
Operational Commercial Communications
Bus & Motor
STARLINK V2MD, Unknown motor
Mass
960 kg wet, ~910 kg dry
Launch date (UTC)
2024-05-10 (2 years ago)
Launch vehicle
FALCON 9
Launch site
Air Force Western Test Range (AFWTR)
Object type
Payload
Rocket body
Debris
Shape & HBR
Box + 2 Pan, 18.1 m
Radar Cross Section
36.964 m², Large (>1 m²)

Expand to show TLE details & history
Last TLE update: 22 hours ago

TLE from 22 hours ago
0 STARLINK-11095
1 59720U 24088N   25346.44917033 -.00002970  00000-0 -19689-4 0  9993
2 59720  53.1589  36.0734 0001069 106.5470 253.5666 15.69677727 92571
Epoch: 2025-12-12T10:46Z
TLE epoch observation values (Epoch: 2025-12-12T10:46:48.316Z)
Latitude
0.00003°
Longitude
152.98147°
Altitude
360.938 km
Speed
7.694 km/s
True Right ascension
02h 24m 17s
True Declination
0° 00' 00"
Sunlit
Object was in full shadow at epoch
Visualization orbit readout
Latitude
Unknown
Longitude
Unknown
Altitude
Unknown
Speed
Unknown
Apparent Right ascension
Unknown
Apparent Declination
Unknown
Sunlit
N/A
Visualization observer readout
Local Sidereal Time
07:35:01
Azimuth
Unknown
Elevation
Unknown
Doppler factor
Unknown
Orbital elements
Apogee altitude
360.8 km
Perigee altitude
359.36 km
Semi-major axis
6,738.217 km
Eccentricity
0.00011
Inclination
53.1589°
RAAN
36.0734°
Arg. of periapsis
106.547°
True anomaly
253.55485°
Mean anomaly
253.5666°
Eccentric anomaly
253.56073°
Mean motion
3.92397 °/min
Orbital period
91.74 mins
BSTAR
-0.000019689
Loading maneuver chart data...
Computing Atmospheric mass density...
Loading historical data...
Loading historical data...
Loading historical data...
Loading historical data...
Loading historical data...
Loading historical data...
Loading historical data...

Documentation

Showing up to 5 results
|